DW3560 Weather Reports


time (UTC)temp
F
wind
direction
speed
knots
gust
knots
rain 1hr
in
rain 24hr
in
rain mn
in
humidity
%
barometer
mb
20260831231002 64 260 2.6 8.7 0.00 0.00 0.00 73 1012.5
20260831230523 64 267 2.6 8.7 0.00 0.00 0.00 73 1012.5
20260831230002 64 298 1.7 8.7 0.00 0.00 0.00 74 1012.5
20260831225523 64 277 2.6 9.6 0.00 0.00 0.00 73 1012.5
20260831225002 64 256 3.5 11.3 0.00 0.00 0.00 74 1012.5
20260831224502 64 265 3.5 11.3 0.00 0.00 0.00 74 1012.5
20260831224002 64 269 3.5 11.3 0.00 0.00 0.00 73 1012.5
20260831223503 64 269 3.5 7.8 0.00 0.00 0.00 73 1012.5
20260831223002 64 268 3.5 9.6 0.00 0.00 0.00 74 1012.5
20260831222502 64 267 3.5 12.2 0.00 0.00 0.00 74 1012.5
20260831222003 64 279 2.6 12.2 0.00 0.00 0.00 75 1012.5
20260831221502 64 268 3.5 10.4 0.00 0.00 0.00 76 1012.5
20260831221002 64 262 2.6 10.4 0.00 0.00 0.00 76 1012.5
20260831220523 64 278 1.7 8.7 0.00 0.00 0.00 76 1012.5
20260831220002 64 264 2.6 7.8 0.00 0.00 0.00 77 1012.5
20260831215523 63 266 2.6 7.8 0.00 0.00 0.00 77 1012.5
20260831215002 63 273 1.7 8.7 0.00 0.00 0.00 79 1012.5
20260831214502 62 264 2.6 8.7 0.00 0.00 0.00 78 1012.5
20260831214002 62 264 2.6 8.7 0.00 0.00 0.00 80 1012.5
20260831213502 61 253 2.6 8.7 0.00 0.00 0.00 80 1012.5
20260831213002 61 257 2.6 10.4 0.00 0.00 0.00 80 1012.5
20260831212502 61 256 3.5 10.4 0.00 0.00 0.00 80 1012.5
20260831212002 61 251 2.6 9.6 0.00 0.00 0.00 80 1012.5
20260831211502 62 262 3.5 8.7 0.00 0.00 0.00 80 1012.5
20260831211002 62 274 2.6 8.7 0.00 0.00 0.00 80 1012.5
20260831210502 62 266 1.7 7.0 0.00 0.00 0.00 80 1012.5
20260831210002 62 270 1.7 9.6 0.00 0.00 0.00 81 1012.5
20260831205502 61 280 2.6 9.6 0.00 0.00 0.00 81 1012.5
20260831205002 61 271 2.6 9.6 0.00 0.00 0.00 81 1012.5
20260831204502 60 264 2.6 9.6 0.00 0.00 0.00 82 1012.5
20260831204002 60 262 2.6 8.7 0.00 0.00 0.00 82 1012.5
20260831203502 60 260 2.6 8.7 0.00 0.00 0.00 82 1012.5
20260831203002 60 256 1.7 9.6 0.00 0.00 0.00 82 1012.5
20260831202502 60 268 2.6 9.6 0.00 0.00 0.00 83 1012.5
20260831202002 60 268 2.6 8.7 0.00 0.00 0.00 83 1012.5
20260831201502 60 251 1.7 5.2 0.00 0.00 0.00 83 1012.5
20260831201002 60 244 2.6 7.8 0.00 0.00 0.00 84 1012.5
20260831200502 60 256 1.7 7.8 0.00 0.00 0.00 84 1012.5
20260831200002 60 265 1.7 8.7 0.00 0.00 0.00 84 1012.5
20260831195502 59 255 2.6 10.4 0.00 0.00 0.00 84 1012.5
20260831195002 59 257 2.6 10.4 0.00 0.00 0.00 84 1012.5
20260831194502 59 256 2.6 8.7 0.00 0.00 0.00 84 1012.5
20260831194002 59 256 2.6 8.7 0.00 0.00 0.00 84 1012.5
20260831193502 59 256 2.6 8.7 0.00 0.00 0.00 84 1012.5
20260831193002 59 259 2.6 7.0 0.00 0.00 0.00 85 1012.5
20260831192502 59 256 2.6 9.6 0.00 0.00 0.00 85 1012.5
20260831192002 59 254 2.6 9.6 0.00 0.00 0.00 85 1012.5
20260831191523 58 250 2.6 7.8 0.00 0.00 0.00 85 1012.5
20260831191023 58 246 2.6 7.8 0.00 0.00 0.00 86 1012.5
20260831190503 58 249 2.6 9.6 0.00 0.00 0.00 86 1012.5
20260831190002 58 250 3.5 9.6 0.00 0.00 0.00 87 1012.5
20260831185502 58 250 3.5 8.7 0.00 0.00 0.00 87 1012.5
20260831185002 58 250 2.6 8.7 0.00 0.00 0.00 87 1012.5
20260831184502 58 247 2.6 7.0 0.00 0.00 0.00 88 1012.5
20260831184002 58 241 2.6 7.0 0.00 0.00 0.00 88 1012.5
20260831183523 58 244 1.7 7.0 0.00 0.00 0.00 88 1012.5
20260831183002 57 255 2.6 7.8 0.00 0.00 0.00 88 1012.5
20260831182502 57 249 3.5 7.8 0.00 0.00 0.00 88 1012.5
20260831182002 57 247 3.5 9.6 0.00 0.00 0.00 88 1012.5
20260831181502 57 248 3.5 9.6 0.00 0.00 0.00 87 1012.5
20260831181002 57 247 2.6 8.7 0.00 0.00 0.00 87 1012.5
20260831180523 57 244 2.6 8.7 0.00 0.00 0.00 87 1012.5
20260831180002 57 246 2.6 7.8 0.00 0.00 0.00 87 1012.5
20260831175502 57 243 1.7 7.8 0.00 0.00 0.00 87 1012.5
20260831175023 57 245 1.7 9.6 0.00 0.00 0.00 87 1012.5
20260831174502 57 252 1.7 9.6 0.00 0.00 0.00 87 1012.5
20260831174002 57 238 2.6 6.1 0.00 0.00 0.00 87 1012.5
20260831173502 57 229 1.7 6.1 0.00 0.00 0.00 87 1012.5
20260831173002 57 241 1.7 7.0 0.00 0.00 0.00 87 1012.5
20260831172502 57 250 2.6 8.7 0.00 0.00 0.00 87 1012.5
20260831172002 57 246 3.5 8.7 0.00 0.00 0.00 87 1012.5
20260831171523 57 238 2.6 7.8 0.00 0.00 0.00 87 1012.5
20260831171002 56 246 1.7 8.7 0.00 0.00 0.00 87 1012.5
20260831170502 56 248 1.7 8.7 0.00 0.00 0.00 87 1012.5
20260831170023 56 249 1.7 7.8 0.00 0.00 0.00 87 1012.5
20260831165502 56 251 2.6 7.8 0.00 0.00 0.00 88 1012.5
20260831165023 56 245 1.7 7.8 0.00 0.00 0.00 88 1012.5
20260831164502 56 243 1.7 7.8 0.00 0.00 0.00 88 1012.5
20260831164023 56 248 1.7 7.8 0.00 0.00 0.00 88 1012.5
20260831163502 56 245 1.7 7.0 0.00 0.00 0.00 89 1012.5
20260831163002 56 240 1.7 7.8 0.00 0.00 0.00 89 1012.5
20260831162503 56 241 1.7 7.8 0.00 0.00 0.00 89 1012.5
20260831162002 56 245 2.6 5.2 0.00 0.00 0.00 89 1012.5
20260831161502 56 254 2.6 7.8 0.00 0.00 0.00 89 1012.5
20260831161002 55 245 2.6 7.8 0.00 0.00 0.00 89 1012.5
20260831160502 55 235 1.7 7.0 0.00 0.00 0.00 89 1012.5
20260831160002 55 228 1.7 6.1 0.00 0.00 0.00 90 1012.5
20260831155502 55 228 1.7 6.1 0.00 0.00 0.00 90 1012.5
20260831155002 55 230 0.9 4.3 0.00 0.00 0.00 90 1012.5
20260831154502 55 231 0.9 4.3 0.00 0.00 0.00 90 1012.5
20260831154002 55 236 1.7 5.2 0.00 0.00 0.00 90 1012.5
20260831153523 55 230 1.7 5.2 0.00 0.00 0.00 90 1012.5
20260831153002 55 234 0.9 5.2 0.00 0.00 0.00 91 1012.5
20260831152523 55 239 0.9 5.2 0.00 0.00 0.00 91 1012.5
20260831152002 55 240 1.7 7.0 0.00 0.00 0.00 91 1012.5
20260831151524 55 251 1.7 7.0 0.00 0.00 0.00 91 1012.5
20260831151024 55 250 1.7 6.1 0.00 0.00 0.00 91 1012.5
20260831150502 55 246 2.6 7.8 0.00 0.00 0.00 91 1012.5
20260831150003 55 242 1.7 7.8 0.00 0.00 0.00 92 1012.5
20260831145502 55 239 1.7 6.1 0.00 0.00 0.00 92 1012.5
20260831145002 55 249 1.7 6.1 0.00 0.00 0.00 92 1012.5
20260831144502 54 247 1.7 6.1 0.00 0.00 0.00 92 1012.5
20260831144002 54 229 1.7 3.5 0.00 0.00 0.00 92 1012.5
20260831143523 54 223 1.7 6.1 0.00 0.00 0.00 92 1012.5
20260831143002 54 235 1.7 7.0 0.00 0.00 0.00 92 1012.5
20260831142502 54 239 1.7 6.1 0.00 0.00 0.00 92 1012.5
20260831142023 54 241 1.7 6.1 0.00 0.00 0.00 92 1012.5
20260831141502 54 243 1.7 4.3 0.00 0.00 0.00 92 1012.5
20260831141002 54 246 1.7 5.2 0.00 0.00 0.00 92 1012.5
20260831140502 54 252 1.7 5.2 0.00 0.00 0.00 92 1012.5
20260831140003 54 256 0.9 4.3 0.00 0.00 0.00 92 1012.5
20260831135523 54 254 1.7 4.3 0.00 0.00 0.00 93 1012.5
20260831135002 54 257 1.7 5.2 0.00 0.00 0.00 92 1012.5
20260831134502 54 254 1.7 5.2 0.00 0.00 0.00 92 1012.5
20260831134002 54 246 1.7 5.2 0.00 0.00 0.00 93 1012.5
20260831133523 54 251 1.7 6.1 0.00 0.00 0.00 93 1012.5
20260831133002 54 253 1.7 6.1 0.00 0.00 0.00 93 1012.5
20260831132502 54 247 1.7 6.1 0.00 0.00 0.00 93 1012.5
20260831132002 54 246 1.7 6.1 0.00 0.00 0.00 93 1012.5
20260831131503 54 252 1.7 5.2 0.00 0.00 0.00 93 1012.5
20260831131003 54 245 1.7 4.3 0.00 0.00 0.00 93 1012.5
20260831130502 54 239 1.7 4.3 0.00 0.00 0.00 93 1012.5
20260831130002 54 245 1.7 3.5 0.00 0.00 0.00 93 1012.5
20260831125502 54 249 1.7 3.5 0.00 0.00 0.00 93 1012.5
20260831125024 54 247 0.9 3.5 0.00 0.00 0.00 93 1012.5
20260831124502 54 245 1.7 6.1 0.00 0.00 0.00 93 1012.5
20260831124002 54 247 2.6 6.1 0.00 0.00 0.00 93 1012.5
20260831123502 54 251 1.7 6.1 0.00 0.00 0.00 93 1012.5
20260831123023 54 263 0.9 5.2 0.00 0.00 0.00 93 1012.5
20260831122503 54 263 0.9 3.5 0.00 0.00 0.00 93 1012.5
20260831122003 54 252 1.7 7.0 0.00 0.00 0.00 92 1012.5
20260831121502 54 247 1.7 7.0 0.00 0.00 0.00 92 1012.5
20260831121002 54 246 1.7 7.0 0.00 0.00 0.00 92 1012.5
20260831120524 54 252 1.7 7.0 0.00 0.00 0.00 92 1012.5
20260831120023 54 248 2.6 7.0 0.00 0.00 0.00 92 1012.5
20260831115502 54 247 1.7 6.1 0.00 0.00 0.00 92 1012.5
20260831115002 54 251 1.7 6.1 0.00 0.00 0.00 93 1012.5
20260831114502 54 251 1.7 7.0 0.00 0.00 0.00 93 1012.5
20260831114002 54 252 1.7 7.0 0.00 0.00 0.00 93 1012.5
20260831113523 54 253 1.7 7.0 0.00 0.00 0.00 93 1012.5
20260831113002 54 254 2.6 7.0 0.00 0.00 0.00 93 1012.5
20260831112502 55 251 2.6 7.0 0.00 0.00 0.00 93 1012.5
20260831112023 55 254 2.6 7.0 0.00 0.00 0.00 93 1012.5
20260831111503 54 259 2.6 7.0 0.00 0.00 0.00 93 1012.5
20260831111002 54 254 2.6 7.0 0.00 0.00 0.00 92 1012.5
20260831110523 55 250 1.7 6.1 0.00 0.00 0.00 92 1012.5
20260831110023 55 253 1.7 6.1 0.00 0.00 0.00 92 1012.5
20260831105503 55 253 1.7 6.1 0.00 0.00 0.00 92 1012.5
20260831105002 55 254 1.7 5.2 0.00 0.00 0.00 92 1012.5
20260831104524 55 246 1.7 5.2 0.00 0.00 0.00 92 1012.5
20260831104002 55 239 1.7 5.2 0.00 0.00 0.00 92 1012.5
20260831103502 55 238 0.9 5.2 0.00 0.00 0.00 92 1012.5
20260831103002 55 235 0.9 3.5 0.00 0.00 0.00 92 1012.5
20260831102503 55 234 0.9 2.6 0.00 0.00 0.00 92 1012.5
20260831102002 55 233 0.9 3.5 0.00 0.00 0.00 92 1012.5
20260831101502 55 236 0.9 3.5 0.00 0.00 0.00 92 1012.5
20260831101002 55 238 0.9 2.6 0.00 0.00 0.00 92 1012.5
20260831100502 55 238 0.9 2.6 0.00 0.00 0.00 92 1012.5
20260831100003 55 237 0.9 3.5 0.00 0.00 0.00 92 1012.5
20260831095503 55 240 0.9 3.5 0.00 0.00 0.00 92 1012.5
20260831095002 55 245 0.9 3.5 0.00 0.00 0.00 92 1012.5
20260831094502 55 246 0.9 2.6 0.00 0.00 0.00 92 1012.5
20260831094002 55 244 0.9 2.6 0.00 0.00 0.00 92 1012.5
20260831093502 55 243 0.9 2.6 0.00 0.00 0.00 92 1012.5
20260831093002 55 241 0.9 2.6 0.00 0.00 0.00 92 1012.5
20260831092503 55 242 0.9 3.5 0.00 0.00 0.00 92 1012.5
20260831092002 55 250 0.9 3.5 0.00 0.00 0.00 92 1012.5
20260831091502 55 256 0.9 3.5 0.00 0.00 0.00 91 1012.5
20260831091002 55 269 0.9 3.5 0.00 0.00 0.00 91 1012.5
20260831090502 55 289 0.0 1.7 0.00 0.00 0.00 91 1012.5
20260831090003 55 291 0.0 2.6 0.00 0.00 0.00 92 1012.5
20260831085503 55 270 0.0 2.6 0.00 0.00 0.00 91 1012.5
20260831085023 55 254 0.9 2.6 0.00 0.00 0.00 91 1012.5
20260831084502 55 254 0.0 2.6 0.00 0.00 0.00 91 1012.5
20260831084003 55 256 0.0 1.7 0.00 0.00 0.00 92 1012.5
20260831083502 55 253 0.0 3.5 0.00 0.00 0.00 92 1012.5
20260831083002 55 253 0.0 3.5 0.00 0.00 0.00 91 1012.5
20260831082523 55 268 0.0 2.6 0.00 0.00 0.00 92 1012.5
20260831081502 55 268 0.0 2.6 0.00 0.00 0.00 91 1012.7
20260831081002 55 264 0.0 2.6 0.00 0.00 0.00 91 1012.7
20260831080024 55 0 0.0 0.0 0.00 0.00 0.00 91 1012.8
20260831075503 55 344 0.0 1.7 0.00 0.00 0.00 91 1012.8
20260831075003 55 344 0.0 1.7 0.00 0.00 0.00 91 1012.8
20260831074502 55 338 0.0 2.6 0.00 0.00 0.00 91 1012.8
20260831074003 55 337 0.0 2.6 0.00 0.00 0.00 91 1012.8
20260831073503 55 328 0.0 4.3 0.00 0.00 0.00 91 1012.8
20260831073002 55 319 0.0 4.3 0.00 0.00 0.00 91 1012.8
20260831072523 55 294 0.0 1.7 0.00 0.00 0.00 91 1012.8
20260831072003 56 284 0.0 1.7 0.00 0.00 0.00 91 1012.8
20260831071523 55 280 0.0 1.7 0.00 0.00 0.00 91 1012.8
20260831071002 55 245 0.0 2.6 0.00 0.00 0.00 91 1012.8
20260831070502 55 242 0.0 2.6 0.00 0.00 0.00 90 1012.8
20260831070005 55 245 0.0 2.6 0.00 0.00 0.00 90 1012.8
20260831065502 55 248 0.0 2.6 0.00 0.00 0.00 90 1012.8
20260831065002 55 253 0.0 1.7 0.00 0.00 0.00 90 1012.8
20260831064503 55 268 0.9 2.6 0.00 0.00 0.00 90 1012.8
20260831064002 55 283 0.0 2.6 0.00 0.00 0.00 90 1012.8
20260831063502 55 313 0.0 1.7 0.00 0.00 0.00 89 1012.6
20260831063002 55 316 0.0 0.9 0.00 0.00 0.00 89 1012.6
20260831062503 55 323 0.0 0.9 0.00 0.00 0.00 89 1012.6
20260831062023 55 323 0.0 0.9 0.00 0.00 0.00 89 1012.6
20260831061502 55 323 0.0 2.6 0.00 0.00 0.00 89 1012.6
20260831061002 55 323 0.0 2.6 0.00 0.00 0.00 88 1012.6
20260831060502 55 321 0.0 0.9 0.00 0.00 0.00 88 1012.6
20260831060003 55 321 0.0 0.9 0.00 0.00 0.00 88 1012.6
20260831055523 55 321 0.0 0.9 0.00 0.00 0.00 88 1012.6
20260831055004 55 320 0.0 0.9 0.00 0.00 0.00 87 1012.6
20260831054502 55 319 0.0 2.6 0.00 0.00 0.00 87 1012.6
20260831054002 55 317 0.0 2.6 0.00 0.00 0.00 87 1012.6
20260831053503 56 315 0.0 1.7 0.00 0.00 0.00 86 1012.8
20260831053003 56 314 0.0 1.7 0.00 0.00 0.00 86 1012.8
20260831052502 56 313 0.0 0.9 0.00 0.00 0.00 86 1012.8
20260831052003 56 313 0.0 0.9 0.00 0.00 0.00 85 1012.8
20260831051503 56 313 0.0 0.9 0.00 0.00 0.00 85 1012.8
20260831051024 56 313 0.0 0.9 0.00 0.00 0.00 85 1012.8
20260831050502 56 313 0.0 1.7 0.00 0.00 0.00 85 1012.8
20260831050003 56 313 0.0 0.9 0.00 0.00 0.00 84 1012.8
20260831045502 57 0 0.0 0.0 0.00 0.00 0.00 84 1012.8
20260831045003 57 0 0.0 0.0 0.00 0.00 0.00 84 1012.8
20260831044503 57 0 0.0 0.0 0.00 0.00 0.00 83 1012.8
20260831044002 57 0 0.0 0.0 0.00 0.00 0.00 83 1012.8
20260831043503 57 0 0.0 0.0 0.00 0.00 0.00 83 1012.2
20260831043003 57 313 0.0 0.9 0.00 0.00 0.00 82 1012.2
20260831042502 57 313 0.0 0.9 0.00 0.00 0.00 82 1012.2
20260831042003 58 313 0.0 0.9 0.00 0.00 0.00 82 1012.2
20260831041503 58 312 0.0 1.7 0.00 0.00 0.00 81 1012.2
20260831041003 58 312 0.0 1.7 0.00 0.00 0.00 81 1012.2
20260831040502 58 311 0.0 0.9 0.00 0.00 0.00 81 1012.2
20260831040003 58 311 0.0 0.9 0.00 0.00 0.00 80 1012.2
20260831035524 59 311 0.0 0.9 0.00 0.00 0.00 80 1012.2
20260831035004 59 311 0.0 0.9 0.00 0.00 0.00 80 1012.2
20260831034502 59 0 0.0 0.0 0.00 0.00 0.00 79 1012.2
20260831034005 60 311 0.0 0.9 0.00 0.00 0.00 79 1012.2
20260831033503 60 311 0.0 0.9 0.00 0.00 0.00 78 1011.9
20260831033003 60 311 0.0 0.9 0.00 0.00 0.00 78 1011.9
20260831032503 60 311 0.0 0.9 0.00 0.00 0.00 77 1011.9
20260831032003 61 311 0.0 0.9 0.00 0.00 0.00 77 1011.9
20260831031504 61 311 0.0 0.9 0.00 0.00 0.00 76 1011.9
20260831031003 61 311 0.0 0.9 0.00 0.00 0.00 76 1011.9
20260831030503 61 311 0.0 0.9 0.00 0.00 0.00 75 1011.9
20260831030004 62 310 0.0 1.7 0.00 0.00 0.00 74 1011.9
20260831025524 62 309 0.0 1.7 0.00 0.00 0.00 74 1011.9
20260831025003 62 309 0.0 1.7 0.00 0.00 0.00 73 1011.9
20260831024503 62 310 0.0 2.6 0.00 0.00 0.00 72 1011.9
20260831024003 63 317 0.9 2.6 0.00 0.00 0.00 72 1011.9
20260831023503 63 326 0.9 2.6 0.00 0.00 0.00 71 1011.9
20260831023003 63 323 0.9 3.5 0.00 0.00 0.00 71 1011.9
20260831022504 64 320 0.9 3.5 0.00 0.00 0.00 70 1011.9
20260831022003 64 331 0.9 4.3 0.00 0.00 0.00 70 1011.9
20260831021503 64 326 0.9 4.3 0.00 0.00 0.00 69 1011.9
20260831021002 64 322 0.9 4.3 0.00 0.00 0.00 69 1011.9
20260831020524 65 324 1.7 6.1 0.00 0.00 0.00 69 1011.9
20260831020003 65 323 1.7 6.1 0.00 0.00 0.00 68 1011.9
20260831015503 66 320 1.7 4.3 0.00 0.00 0.00 68 1011.9
20260831015023 66 321 1.7 4.3 0.00 0.00 0.00 67 1011.9
20260831014503 66 325 1.7 7.0 0.00 0.00 0.00 66 1011.9
20260831014003 67 329 1.7 7.0 0.00 0.00 0.00 65 1011.9
20260831013503 68 328 0.9 4.3 0.00 0.00 0.00 65 1011.9
20260831013003 68 322 1.7 5.2 0.00 0.00 0.00 64 1011.9
20260831012524 68 316 1.7 5.2 0.00 0.00 0.00 64 1011.9
20260831012003 69 326 2.6 7.8 0.00 0.00 0.00 63 1011.9
20260831011524 70 330 1.7 7.8 0.00 0.00 0.00 63 1011.9
20260831011024 70 320 0.9 3.5 0.00 0.00 0.00 62 1011.9
20260831010524 70 329 0.9 5.2 0.00 0.00 0.00 62 1011.9
20260831010024 71 335 0.9 5.2 0.00 0.00 0.00 62 1011.9
20260831005503 71 341 0.9 5.2 0.00 0.00 0.00 62 1011.9
20260831005024 71 334 1.7 5.2 0.00 0.00 0.00 62 1011.9
20260831004503 71 324 1.7 5.2 0.00 0.00 0.00 61 1011.9
20260831004003 71 330 1.7 7.0 0.00 0.00 0.00 61 1012.1
20260831003502 72 335 2.6 7.8 0.00 0.00 0.00 61 1012.1
20260831003003 72 335 2.6 7.8 0.00 0.00 0.00 60 1012.1
20260831002503 73 334 2.6 7.0 0.00 0.00 0.00 59 1012.1
20260831002003 73 328 1.7 7.8 0.00 0.00 0.00 59 1012.1
20260831001524 73 332 1.7 7.8 0.00 0.00 0.00 59 1012.1
20260831001003 74 330 1.7 7.0 0.00 0.00 0.00 59 1012.1
20260831000503 74 329 1.7 6.1 0.00 0.00 0.00 59 1012.1
20260831000003 74 339 1.7 7.8 0.00 0.00 0.00 58 1012.1
20260830235503 74 333 2.6 7.8 0.00 0.00 0.00 58 1012.1
20260830235003 74 325 1.7 7.8 0.00 0.00 0.00 57 1012.1
20260830234524 74 321 1.7 7.8 0.00 0.00 0.00 57 1012.1
20260830234003 75 327 1.7 7.0 0.00 0.00 0.00 57 1013.3
20260830233503 75 335 1.7 7.0 0.00 0.00 0.00 57 1013.3
20260830233003 75 328 1.7 7.0 0.00 0.00 0.00 57 1013.3
20260830232524 75 321 1.7 7.0 0.00 0.00 0.00 57 1013.3
20260830232003 75 330 2.6 7.8 0.00 0.00 0.00 57 1013.3
20260830231524 75 330 1.7 7.8 0.00 0.00 0.00 57 1013.3